When you browse on this site, cookies collect data to enhance your experience and personalize the content and advertising you see.
Visit our Privacy Policy to learn more. By continuing to use the site, you agree to this use of cookies and data.
  • In United Kingdom
  • List of Countries
  • For 7 days
  • Water Temperature
  • Weather Map
  • Weather Widgets
  • user-avatar
    Login

    Hourly Weather Kikwit

    Today, 20 September, Friday

    Time Temperature Precipitation Wind Pressure Humidity
    00:00 +25°C° 0 mm 0 mps 721 mmHg 73%
    01:00 +25°C° 0 mm 0 mps 721 mmHg 74%
    02:00 +24°C° 0.1 mm 0 mps 721 mmHg 77%
    03:00 +24°C° 0.1 mm 0 mps 721 mmHg 79%
    04:00 +23°C° 0.1 mm 0 mps 721 mmHg 82%
    05:00 +24°C° 0 mm 0 mps 721 mmHg 79%
    06:00 +25°C° 0 mm 0 mps 722 mmHg 76%
    07:00 +27°C° 0 mm 1 mps 722 mmHg 74%
    08:00 +30°C° 0 mm 1 mps 722 mmHg 64%
    09:00 +32°C° 0 mm 1 mps 723 mmHg 55%
    10:00 +35°C° 0 mm 2 mps 723 mmHg 45%
    11:00 +36°C° 0 mm 1 mps 722 mmHg 41%
    12:00 +39°C° 0 mm 1 mps 721 mmHg 36%
    13:00 +40°C° 0 mm 1 mps 720 mmHg 32%
    14:00 +39°C° 0 mm 1 mps 720 mmHg 35%
    15:00 +36°C° 0 mm 1 mps 719 mmHg 39%
    16:00 +35°C° 0 mm 1 mps 718 mmHg 42%
    17:00 +33°C° 0.8 mm 1 mps 719 mmHg 53%
    18:00 +30°C° 0.8 mm 1 mps 719 mmHg 63%
    19:00 +26°C° 0.8 mm 0 mps 720 mmHg 74%
    20:00 +26°C° 0.1 mm 0 mps 720 mmHg 75%
    21:00 +27°C° 0.1 mm 1 mps 721 mmHg 76%
    22:00 +27°C° 0.1 mm 1 mps 722 mmHg 76%
    23:00 +27°C° 0.1 mm 1 mps 721 mmHg 78%

    Tomorrow, 21 September, Saturday

    Time Temperature Precipitation Wind Pressure Humidity
    00:00 +24°C° 0.1 mm 0 mps 721 mmHg 80%
    01:00 +24°C° 0.1 mm 0 mps 721 mmHg 82%
    02:00 +24°C° 0 mm 0 mps 721 mmHg 84%
    03:00 +24°C° 0 mm 0 mps 720 mmHg 85%
    04:00 +23°C° 0 mm 0 mps 720 mmHg 87%
    05:00 +26°C° 0 mm 1 mps 721 mmHg 85%
    06:00 +26°C° 0 mm 1 mps 722 mmHg 83%
    07:00 +27°C° 0 mm 1 mps 722 mmHg 81%
    08:00 +29°C° 0 mm 1 mps 722 mmHg 71%
    09:00 +31°C° 0 mm 1 mps 722 mmHg 60%
    10:00 +35°C° 0 mm 2 mps 723 mmHg 50%
    11:00 +36°C° 0 mm 2 mps 722 mmHg 46%
    12:00 +37°C° 0 mm 2 mps 721 mmHg 41%
    13:00 +39°C° 0 mm 2 mps 720 mmHg 37%
    14:00 +38°C° 0 mm 2 mps 720 mmHg 39%
    15:00 +37°C° 0 mm 2 mps 719 mmHg 40%
    16:00 +36°C° 0 mm 1 mps 719 mmHg 41%
    17:00 +34°C° 0 mm 1 mps 719 mmHg 47%
    18:00 +32°C° 0 mm 1 mps 719 mmHg 52%
    19:00 +28°C° 0 mm 0 mps 719 mmHg 58%
    20:00 +29°C° 0.9 mm 1 mps 720 mmHg 67%
    21:00 +28°C° 0.9 mm 1 mps 720 mmHg 76%
    22:00 +26°C° 0.9 mm 1 mps 721 mmHg 85%
    23:00 +26°C° 0.1 mm 1 mps 721 mmHg 85%

    Day after tomorrow, 22 September, Sunday

    Time Temperature Precipitation Wind Pressure Humidity
    00:00 +24°C° 0.1 mm 0 mps 721 mmHg 86%
    01:00 +24°C° 0.1 mm 0 mps 721 mmHg 86%
    02:00 +24°C° 0.1 mm 0 mps 721 mmHg 87%
    03:00 +24°C° 0.1 mm 0 mps 720 mmHg 87%
    04:00 +23°C° 0.1 mm 0 mps 720 mmHg 88%
    05:00 +24°C° 0.1 mm 0 mps 721 mmHg 86%
    06:00 +26°C° 0.1 mm 1 mps 722 mmHg 83%
    07:00 +27°C° 0.1 mm 1 mps 722 mmHg 81%
    08:00 +28°C° 0 mm 1 mps 722 mmHg 73%
    09:00 +30°C° 0 mm 1 mps 722 mmHg 65%
    10:00 +32°C° 0 mm 1 mps 723 mmHg 57%
    11:00 +32°C° 0.4 mm 2 mps 722 mmHg 55%
    12:00 +34°C° 0.4 mm 2 mps 721 mmHg 54%
    13:00 +34°C° 0.4 mm 3 mps 721 mmHg 52%
    14:00 +34°C° 0 mm 3 mps 720 mmHg 53%
    15:00 +32°C° 0 mm 2 mps 720 mmHg 55%
    16:00 +32°C° 0 mm 2 mps 720 mmHg 56%
    17:00 +30°C° 0 mm 2 mps 720 mmHg 63%
    18:00 +28°C° 0 mm 1 mps 720 mmHg 70%
    19:00 +25°C° 0 mm 0 mps 720 mmHg 77%
    20:00 +25°C° 0 mm 0 mps 720 mmHg 78%
    21:00 +24°C° 0 mm 0 mps 721 mmHg 78%
    22:00 +24°C° 0 mm 0 mps 721 mmHg 79%
    23:00 +24°C° 0 mm 0 mps 721 mmHg 80%

    23 September, Monday

    Time Temperature Precipitation Wind Pressure Humidity
    00:00 +24°C° 0 mm 0 mps 721 mmHg 81%
    01:00 +23°C° 0 mm 0 mps 721 mmHg 83%
    02:00 +23°C° 0.1 mm 0 mps 721 mmHg 85%
    03:00 +23°C° 0.1 mm 0 mps 721 mmHg 87%
    04:00 +22°C° 0.1 mm 0 mps 721 mmHg 89%
    05:00 +23°C° 0 mm 0 mps 721 mmHg 86%
    06:00 +26°C° 0 mm 1 mps 721 mmHg 83%
    07:00 +26°C° 0 mm 1 mps 722 mmHg 80%
    08:00 +29°C° 0 mm 1 mps 722 mmHg 70%
    09:00 +31°C° 0 mm 2 mps 722 mmHg 61%
    10:00 +35°C° 0 mm 2 mps 722 mmHg 51%
    11:00 +36°C° 0 mm 2 mps 721 mmHg 46%
    12:00 +37°C° 0 mm 2 mps 721 mmHg 41%
    13:00 +38°C° 0 mm 2 mps 720 mmHg 36%
    14:00 +38°C° 0 mm 2 mps 720 mmHg 39%
    15:00 +36°C° 0 mm 1 mps 719 mmHg 41%
    16:00 +35°C° 0 mm 1 mps 719 mmHg 43%
    17:00 +33°C° 0 mm 1 mps 719 mmHg 48%
    18:00 +32°C° 0 mm 1 mps 719 mmHg 54%
    19:00 +30°C° 0 mm 1 mps 720 mmHg 59%
    20:00 +27°C° 0.1 mm 0 mps 720 mmHg 63%
    21:00 +26°C° 0.1 mm 0 mps 720 mmHg 67%
    22:00 +26°C° 0.1 mm 0 mps 721 mmHg 70%
    23:00 +25°C° 0.1 mm 0 mps 721 mmHg 73%

    24 September, Tuesday

    Time Temperature Precipitation Wind Pressure Humidity
    00:00 +25°C° 0.1 mm 0 mps 721 mmHg 76%
    01:00 +24°C° 0.1 mm 0 mps 721 mmHg 78%
    02:00 +24°C° 0.6 mm 0 mps 721 mmHg 82%
    03:00 +23°C° 0.6 mm 0 mps 721 mmHg 86%
    04:00 +24°C° 0.6 mm 1 mps 721 mmHg 90%
    05:00 +25°C° 0 mm 1 mps 721 mmHg 87%
    06:00 +24°C° 0 mm 0 mps 722 mmHg 83%
    07:00 +25°C° 0 mm 0 mps 722 mmHg 80%
    08:00 +29°C° 0 mm 1 mps 722 mmHg 69%
    09:00 +31°C° 0 mm 1 mps 723 mmHg 59%
    10:00 +35°C° 0 mm 2 mps 723 mmHg 48%
    11:00 +36°C° 0 mm 2 mps 722 mmHg 44%
    12:00 +37°C° 0 mm 2 mps 721 mmHg 39%
    13:00 +39°C° 0 mm 2 mps 720 mmHg 35%
    14:00 +38°C° 0 mm 2 mps 720 mmHg 36%
    15:00 +38°C° 0 mm 2 mps 719 mmHg 36%
    16:00 +37°C° 0 mm 2 mps 719 mmHg 37%
    17:00 +34°C° 0 mm 1 mps 719 mmHg 42%
    18:00 +33°C° 0 mm 1 mps 719 mmHg 48%
    19:00 +31°C° 0 mm 1 mps 719 mmHg 54%
    20:00 +29°C° 1.1 mm 1 mps 720 mmHg 63%
    21:00 +28°C° 1.1 mm 2 mps 720 mmHg 72%
    22:00 +26°C° 1.1 mm 2 mps 721 mmHg 81%
    23:00 +26°C° 0.7 mm 2 mps 721 mmHg 83%

    25 September, Wednesday

    Time Temperature Precipitation Wind Pressure Humidity
    00:00 +25°C° 0.7 mm 1 mps 721 mmHg 85%
    01:00 +25°C° 0.7 mm 1 mps 721 mmHg 87%
    02:00 +23°C° 0.2 mm 0 mps 721 mmHg 88%
    03:00 +22°C° 0.2 mm 0 mps 721 mmHg 89%
    04:00 +22°C° 0.2 mm 0 mps 721 mmHg 90%
    05:00 +23°C° 0 mm 0 mps 721 mmHg 89%
    06:00 +23°C° 0 mm 0 mps 722 mmHg 87%
    07:00 +26°C° 0 mm 1 mps 722 mmHg 85%
    08:00 +28°C° 0 mm 1 mps 722 mmHg 74%
    09:00 +30°C° 0 mm 1 mps 722 mmHg 64%
    10:00 +34°C° 0 mm 2 mps 723 mmHg 53%
    11:00 +35°C° 0 mm 2 mps 722 mmHg 48%
    12:00 +37°C° 0 mm 2 mps 721 mmHg 43%
    13:00 +38°C° 0 mm 2 mps 720 mmHg 38%
    14:00 +37°C° 0 mm 2 mps 720 mmHg 40%
    15:00 +37°C° 0 mm 2 mps 719 mmHg 42%
    16:00 +35°C° 0 mm 1 mps 719 mmHg 44%
    17:00 +33°C° 0.7 mm 1 mps 719 mmHg 54%
    18:00 +30°C° 0.7 mm 2 mps 719 mmHg 65%
    19:00 +28°C° 0.7 mm 2 mps 719 mmHg 75%
    20:00 +28°C° 0.3 mm 1 mps 720 mmHg 77%
    21:00 +27°C° 0.3 mm 1 mps 720 mmHg 78%
    22:00 +25°C° 0.3 mm 0 mps 721 mmHg 79%
    23:00 +24°C° 0.1 mm 0 mps 721 mmHg 81%
    Show more